This is the latest recevied weather packets stored in our database for station/object N6XE-13. If no packets are shown the sender has not sent any weather packets the latest 10 day(s).
| Time | Temp. | Humidity | Pressure | Rain* | Wind** | Luminosity | Snow |
|---|---|---|---|---|---|---|---|
| 1778178606 | 24.44° C | 64% | 1020.6 hPa | 0 mm | - | - | - |
| 1778176806 | 22.78° C | 68% | 1020.9 hPa | 0 mm | - | - | - |
| 1778175006 | 21.67° C | 71% | 1021 hPa | 0 mm | - | - | - |
| 1778173206 | 20.56° C | 74% | 1021.2 hPa | 0 mm | - | - | - |
| 1778171406 | 19.44° C | 78% | 1021.3 hPa | 0 mm | - | - | - |
| 1778169605 | 18.33° C | 84% | 1021.3 hPa | 0 mm | - | - | - |
| 1778167805 | 16.67° C | 90% | 1021.6 hPa | 0 mm | - | - | - |
| 1778166005 | 15.56° C | 94% | 1021.6 hPa | 0 mm | - | - | - |
| 1778164205 | 14.44° C | 97% | 1021.3 hPa | 0 mm | - | - | - |
| 1778162405 | 13.33° C | 99% | 1021 hPa | 0 mm | - | - | - |
| 1778160605 | 12.78° C | 99% | 1020.8 hPa | 0 mm | - | - | - |
| 1778158806 | 12.78° C | 99% | 1020.7 hPa | 0 mm | - | - | - |
| 1778157006 | 12.78° C | 99% | 1020.6 hPa | 0 mm | - | - | - |
| 1778155206 | 12.78° C | 99% | 1020.6 hPa | 0 mm | - | - | - |
| 1778153407 | 13.33° C | 98% | 1020.6 hPa | 0 mm | - | - | - |
| 1778151606 | 13.89° C | 97% | 1020.5 hPa | 0 mm | - | - | - |
| 1778149806 | 13.89° C | 97% | 1020.6 hPa | 0 mm | - | - | - |
| 1778148005 | 13.89° C | 99% | 1020.6 hPa | 0 mm | - | - | - |
| 1778146205 | 14.44° C | 96% | 1020.7 hPa | 0 mm | - | - | - |
| 1778144405 | 14.44° C | 96% | 1020.8 hPa | 0 mm | - | - | - |
| 1778142605 | 15° C | 92% | 1020.8 hPa | 0 mm | - | - | - |
| 1778140805 | 15.56° C | 91% | 1020.7 hPa | 0 mm | - | - | - |
| 1778139005 | 15.56° C | 88% | 1020.6 hPa | 0 mm | - | - | - |
| 1778137205 | 16.11° C | 88% | 1020.5 hPa | 0 mm | - | - | - |
| 1778135405 | 16.11° C | 87% | 1020.5 hPa | 0 mm | - | - | - |
* Rain latest hour (hover to see other rain measurements)
** Current wind speed in m/s (hover to see current wind gust speed)